Location: Newark
(54.3386°S, 169.8415°W)
Time: 16:35:58
(UTC+00:00)

S-56A Canister/Altair - All Passes

Search period start: 22 October 2019 00:00
Search period end: 01 November 2019 00:00
Orbit: 633 x 2499 km, 38.9° (Epoch: 22 October)

Date Brightness Start Highest point End Pass type
(mag) Time Alt. Az. Time Alt. Az. Time Alt. Az.
22 Oct - 00:05:58 10° NNW 00:15:24 22° NNE 00:23:12 10° ENE daylight
22 Oct - 02:08:30 10° NW 02:19:13 32° N 02:27:10 10° ENE daylight
22 Oct - 04:13:37 10° WNW 04:22:43 29° NNW 04:29:20 10° NE daylight
22 Oct - 06:20:38 10° WNW 06:25:06 15° NW 06:28:51 10° N daylight
22 Oct - 23:33:01 10° N 23:42:22 21° NNE 23:50:18 10° ENE daylight
23 Oct - 01:35:03 10° NW 01:46:13 32° N 01:54:40 10° ENE daylight
23 Oct - 03:40:00 10° WNW 03:49:54 32° NNW 03:57:06 10° NE daylight
23 Oct - 05:46:38 10° WNW 05:52:32 18° NW 05:57:17 10° N daylight
23 Oct - 23:00:10 10° N 23:09:18 20° NNE 23:17:16 10° ENE daylight
24 Oct - 01:01:38 10° NW 01:13:10 32° NNE 01:22:05 10° ENE daylight
24 Oct - 03:06:22 10° WNW 03:17:02 34° N 03:24:48 10° NE daylight
24 Oct - 05:12:45 10° WNW 05:19:56 21° NNW 05:25:30 10° NNE daylight
24 Oct - 22:27:28 10° N 22:36:14 19° NE 22:44:06 10° ENE daylight
25 Oct - 00:28:17 10° NW 00:40:05 32° NNE 00:49:25 10° ENE daylight
25 Oct - 02:32:45 10° WNW 02:44:05 35° N 02:52:26 10° NE daylight
25 Oct - 04:38:56 10° WNW 04:47:15 24° NNW 04:53:34 10° NNE daylight
25 Oct - 21:54:57 10° N 22:03:11 17° NE 22:10:44 10° ENE daylight
25 Oct - 23:55:00 10° NW 00:06:56 32° NNE 00:16:40 10° ENE daylight
26 Oct - 01:59:09 10° WNW 02:11:04 37° N 02:19:58 10° ENE daylight
26 Oct - 04:05:09 10° WNW 04:14:29 27° NNW 04:21:31 10° NNE daylight
26 Oct - 21:22:40 10° NNE 21:30:07 16° NE 21:37:10 10° ENE daylight
26 Oct - 23:21:48 10° NNW 23:33:45 31° NNE 23:43:50 10° ENE daylight
27 Oct - 01:25:35 10° WNW 01:37:59 38° N 01:47:27 10° ENE daylight
27 Oct - 03:31:23 10° WNW 03:41:40 30° NNW 03:49:21 10° NNE daylight
27 Oct - 05:39:55 10° WNW 05:43:54 13° NW 05:47:24 10° NNW daylight
27 Oct - 20:50:42 10° NNE 20:57:05 14° NE 21:03:16 10° ENE daylight
27 Oct - 22:48:42 10° NNW 23:00:34 30° NNE 23:10:53 10° ENE daylight
28 Oct - 00:52:05 10° WNW 01:04:51 39° N 01:14:51 10° ENE daylight
28 Oct - 02:57:39 10° WNW 03:08:46 33° NNW 03:17:05 10° NE daylight
28 Oct - 05:05:22 10° WNW 05:11:17 16° NW 05:16:14 10° N daylight
28 Oct - 20:19:14 10° NNE 20:24:05 12° NE 20:28:52 10° ENE daylight
28 Oct - 22:15:42 10° NNW 22:27:22 28° NNE 22:37:51 10° E daylight
29 Oct - 00:18:37 10° NW 00:31:39 39° N 00:42:10 10° ENE daylight
29 Oct - 02:23:57 10° WNW 02:35:46 35° NNW 02:44:44 10° NE daylight
29 Oct - 04:31:10 10° W 04:38:37 19° NW 04:44:39 10° N daylight
29 Oct - 19:49:16 10° NE 19:51:07 10° NE 19:52:58 10° ENE daylight
29 Oct - 21:42:50 10° NNW 21:54:09 27° NNE 22:04:41 10° E daylight
29 Oct - 23:45:14 10° NW 23:58:24 39° N 00:09:23 10° ENE daylight
30 Oct - 01:50:17 10° WNW 02:02:43 37° NNW 02:12:18 10° NE daylight
30 Oct - 03:57:06 10° W 04:05:51 22° NW 04:12:50 10° N daylight
30 Oct - 21:10:06 10° NNW 21:20:58 25° NE 21:31:24 10° E daylight
30 Oct - 23:11:57 10° NW 23:25:07 38° NNE 23:36:32 10° ENE daylight
31 Oct - 01:16:40 10° WNW 01:29:34 39° N 01:39:46 10° NE daylight
31 Oct - 03:23:10 10° W 03:33:01 25° NW 03:40:49 10° NNE daylight
31 Oct - 20:37:31 10° N 20:47:48 23° NE 20:57:58 10° E daylight
31 Oct - 22:38:44 10° NW 22:51:49 38° NNE 23:03:35 10° ENE daylight
